Regional Weather Roundup
Issued by NWS Newport/Morehead, NC

Current Version | Previous Version | Graphics & Text | Print | Product List | Glossary Off
Versions: 1 2 3 4 5 6 7 8 9 10 11 12 13 14 15 16 17 18 19 20 21 22 23 24 25 26 27 28 29 30 31 32 33 34 35 36 37 38 39 40 41 42 43 44 45 46 47 48 49 50

000
ASUS42 KMHX 181425
RWRMHX
WEATHER ROUNDUP FOR EASTERN NORTH CAROLINA
NATIONAL WEATHER SERVICE NEWPORT/MOREHEAD CITY NC
1000 AM EDT WED OCT 18 2017

NOTE: "FAIR" INDICATES FEW OR NO CLOUDS BELOW 12,000 FEET
WITH NO SIGNIFICANT WEATHER AND/OR OBSTRUCTIONS TO VISIBILITY

NCZ015>017-031-032-045>047-102-103-181500-
NORTH COAST

CITY           SKY/WX    TMP DP  RH WIND       PRES   REMARKS
EDENTON        SUNNY     60  52  77 CALM      30.39S
ELIZABETH CITY SUNNY     62  54  74 NE6       30.38R
KITTY HAWK     SUNNY     65  50  58 NE6       30.35R
MANTEO         SUNNY    N/A N/A N/A E15       30.36S

$$

NCZ045>047-081-094-103-104-181500-
CENTRAL COAST

CITY           SKY/WX    TMP DP  RH WIND       PRES   REMARKS
FRISCO         SUNNY     68  56  65 NE12G20   30.33R

$$

NCZ095-097-098-100-101-181500-
SOUTHERN COAST

CITY           SKY/WX    TMP DP  RH WIND       PRES   REMARKS
BEAUFORT       SUNNY     65  55  70 N15G22    30.32S
CEDAR ISLAND   NOT AVBL
JACKSONVILLE   SUNNY     59  52  77 N9        30.35R
PINEY ISLAND     N/A    N/A N/A N/A N16G23    30.33R
WILMINGTON     SUNNY     59  50  72 N6        30.34R


$$

NCZ011>013-027>030-043-044-078>080-089-090>093-098-181500-
COASTAL PLAIN

CITY           SKY/WX    TMP DP  RH WIND       PRES   REMARKS
AHOSKIE        SUNNY     53  47  80 N3        30.40S
CLINTON        SUNNY     57  48  73 NE6       30.38S
ELIZABETHTOWN  NOT AVBL
GOLDSBORO      SUNNY     55  47  73 N6        30.37R
GREENVILLE     SUNNY     55  48  76 NE7       30.39R
HAVELOCK       SUNNY     61  54  77 NE17      30.35R
KENANSVILLE    SUNNY     57  48  72 NE5       30.38S
KINSTON        SUNNY     57  48  72 N8        30.39R
NEW BERN       SUNNY     59  52  77 NE9       30.37R
RICHLANDS      SUNNY     57  50  77 N8        30.37R
ROCKY MOUNT    SUNNY     54  47  77 NE5       30.41R
WASHINGTON     SUNNY     59  51  73 N10       30.38S
WHITEVILLE     SUNNY     56  47  73 N7        30.36R

$$

AMZ130-135-150-152-154-156-158-170-250-252-270-ANZ085-086-088-633-658-670-181500-
MARINE OBSERVATIONS

STATION/POSITION TIME  TEMP    WIND        PRES    WAVE   SWELL
                       AIR SEA DIR/SP/G            HT/PER HT/PER
                 (UTC) (F)     (DEG/KT/KT) (MB)    (FT/S) (FT/S)
CHESAPEAKE LIGHT NOT AVBL
64 E VA BEACH    1350   63 67   50/ 12/ 16 1028.6    4/10   3/10
DUCK             1400   63 68   50/ 14/ 16 1028.1
2 E DUCK         1400      70                N/A     4/ 8   2/11
OREGON INLET     1400   65 64   40/ 13/ 15 1027.5
13E OREGON INLT  1348      71                N/A     5/11   5/11
HATTERAS CG      1400   65 66   30/ 13/ 17 1026.8
DIAMOND BUOY     1350   68 81   20/ 19/ 25 1025.7    6/ 8   3/ 8
CAPE LOOKOUT     1400   65      20/ 13/ 17 1026.2
BEAUFORT LAB     1400   64 69   20/ 11/ 17 1027.0
30 SE NEW RVR IN 1408   68      40/ 19/ 23 1025.6
30 SE NEW RVR IN NOT AVBL
27 SE WRIGHTSVLE 1408   67 77   70/ 19/ 25 1025.4
5 SE WRIGHTSVLE  1408   63 74   30/ 16/ 25 1026.7
225 S CAPE HAT   1350   75 80   50/ 25/ 29 1020.4    9/ 9   5/ 9
41 SE CHARLESTON 1410   71 80   30/ 17/ 23 1024.3

$$




USA.gov is the U.S. government's official web portal to all federal, state and local government web resources and services.